| time (UTC) | temp F | wind direction | speed MPH | gust MPH | rain 1hr in | rain 24hr in | rain mn in | humidity % | barometer mb |
| 20260506012027 | 49 | 0 | 1.0 | 2.0 | 0.00 | 0.54 | 0.27 | 77 | 1015.8 |
| 20260506011540 | 49 | 0 | 0.0 | 4.0 | 0.00 | 0.54 | 0.27 | 76 | 1015.8 |
| 20260506011027 | 49 | 183 | 1.0 | 4.0 | 0.00 | 0.54 | 0.27 | 76 | 1015.8 |
| 20260506010526 | 49 | 183 | 1.0 | 4.0 | 0.00 | 0.54 | 0.27 | 76 | 1015.8 |
| 20260506010039 | 49 | 0 | 1.0 | 3.0 | 0.00 | 0.54 | 0.27 | 76 | 1015.7 |
| 20260506005526 | 49 | 183 | 1.0 | 4.0 | 0.00 | 0.62 | 0.27 | 77 | 1015.7 |
| 20260506005027 | 49 | 183 | 0.0 | 4.0 | 0.00 | 0.62 | 0.27 | 78 | 1015.7 |
| 20260506004620 | 49 | 183 | 2.0 | 4.0 | 0.00 | 0.62 | 0.27 | 77 | 1015.7 |
| 20260506004024 | 49 | 0 | 1.0 | 4.0 | 0.00 | 0.62 | 0.27 | 76 | 1015.7 |
| 20260506003525 | 49 | 183 | 1.0 | 4.0 | 0.00 | 0.62 | 0.27 | 76 | 1015.7 |
| 20260506003045 | 49 | 183 | 0.0 | 4.0 | 0.00 | 0.62 | 0.27 | 76 | 1015.7 |
| 20260506002525 | 49 | 0 | 0.0 | 4.0 | 0.00 | 0.62 | 0.27 | 75 | 1015.7 |
| 20260506002025 | 50 | 183 | 2.0 | 4.0 | 0.00 | 0.62 | 0.27 | 74 | 1015.7 |
| 20260506001544 | 50 | 0 | 1.0 | 4.0 | 0.00 | 0.62 | 0.27 | 74 | 1015.8 |
| 20260506001025 | 51 | 183 | 1.0 | 4.0 | 0.00 | 0.62 | 0.27 | 72 | 1015.8 |
| 20260506000526 | 52 | 0 | 1.0 | 4.0 | 0.00 | 0.62 | 0.27 | 72 | 1015.7 |
| 20260506000047 | 51 | 183 | 0.0 | 4.0 | 0.00 | 0.62 | 0.27 | 73 | 1015.6 |
| 20260505235526 | 51 | 183 | 2.0 | 5.0 | 0.00 | 0.76 | 0.27 | 72 | 1015.5 |
| 20260505235027 | 51 | 183 | 2.0 | 6.0 | 0.00 | 0.76 | 0.27 | 71 | 1015.6 |
| 20260505234606 | 51 | 183 | 3.0 | 6.0 | 0.00 | 0.76 | 0.27 | 71 | 1015.6 |
| 20260505234025 | 52 | 182 | 1.0 | 7.0 | 0.00 | 0.76 | 0.27 | 70 | 1015.6 |
| 20260505233525 | 52 | 182 | 2.0 | 7.0 | 0.00 | 0.76 | 0.27 | 70 | 1015.6 |
| 20260505233045 | 52 | 186 | 1.0 | 5.0 | 0.00 | 0.76 | 0.27 | 72 | 1015.6 |
| 20260505232526 | 52 | 182 | 2.0 | 7.0 | 0.00 | 0.76 | 0.27 | 70 | 1015.6 |
| 20260505232026 | 52 | 184 | 2.0 | 7.0 | 0.00 | 0.76 | 0.27 | 70 | 1015.7 |
| 20260505231546 | 52 | 185 | 2.0 | 7.0 | 0.00 | 0.76 | 0.27 | 73 | 1015.7 |
| 20260505231025 | 51 | 186 | 1.0 | 7.0 | 0.00 | 0.76 | 0.27 | 74 | 1015.8 |
| 20260505230525 | 51 | 183 | 3.0 | 6.0 | 0.00 | 0.76 | 0.27 | 73 | 1015.7 |
| 20260505230047 | 51 | 183 | 1.0 | 7.0 | 0.00 | 0.76 | 0.27 | 73 | 1015.8 |
| 20260505225527 | 51 | 194 | 3.0 | 7.0 | 0.00 | 0.81 | 0.27 | 73 | 1015.8 |
| 20260505225024 | 51 | 161 | 2.0 | 7.0 | 0.00 | 0.81 | 0.27 | 73 | 1015.8 |
| 20260505224546 | 51 | 173 | 3.0 | 7.0 | 0.00 | 0.81 | 0.27 | 72 | 1015.8 |
| 20260505224025 | 51 | 112 | 3.0 | 6.0 | 0.00 | 0.81 | 0.27 | 71 | 1015.8 |
| 20260505223525 | 51 | 165 | 0.0 | 6.0 | 0.00 | 0.81 | 0.27 | 73 | 1015.8 |
| 20260505223052 | 51 | 167 | 3.0 | 6.0 | 0.00 | 0.81 | 0.27 | 72 | 1015.8 |
| 20260505222525 | 51 | 156 | 2.0 | 6.0 | 0.00 | 0.81 | 0.27 | 73 | 1015.8 |
| 20260505222027 | 51 | 157 | 4.0 | 6.0 | 0.00 | 0.81 | 0.27 | 71 | 1015.8 |
| 20260505221558 | 52 | 183 | 1.0 | 7.0 | 0.00 | 0.81 | 0.27 | 72 | 1015.8 |
| 20260505221026 | 52 | 186 | 3.0 | 7.0 | 0.00 | 0.81 | 0.27 | 72 | 1015.8 |
| 20260505220525 | 52 | 162 | 3.0 | 7.0 | 0.00 | 0.81 | 0.27 | 73 | 1015.7 |
| 20260505220050 | 52 | 194 | 2.0 | 6.0 | 0.00 | 0.81 | 0.27 | 73 | 1015.8 |
| 20260505215526 | 52 | 193 | 3.0 | 6.0 | 0.00 | 0.81 | 0.27 | 72 | 1015.9 |
| 20260505215025 | 52 | 190 | 3.0 | 8.0 | 0.00 | 0.81 | 0.27 | 73 | 1015.8 |
| 20260505214547 | 51 | 159 | 3.0 | 8.0 | 0.00 | 0.81 | 0.27 | 74 | 1015.9 |
| 20260505214026 | 52 | 182 | 2.0 | 7.0 | 0.00 | 0.81 | 0.27 | 75 | 1015.9 |
| 20260505213525 | 52 | 186 | 3.0 | 7.0 | 0.00 | 0.81 | 0.27 | 71 | 1015.8 |
| 20260505213041 | 52 | 155 | 3.0 | 7.0 | 0.00 | 0.81 | 0.27 | 75 | 1016.0 |
| 20260505212525 | 51 | 181 | 3.0 | 8.0 | 0.00 | 0.81 | 0.27 | 75 | 1015.9 |
| 20260505212027 | 51 | 180 | 2.0 | 8.0 | 0.00 | 0.81 | 0.27 | 75 | 1016.0 |
| 20260505211538 | 51 | 173 | 3.0 | 7.0 | 0.00 | 0.81 | 0.27 | 74 | 1016.1 |
| 20260505211026 | 51 | 184 | 2.0 | 7.0 | 0.00 | 0.81 | 0.27 | 78 | 1016.0 |
| 20260505210525 | 50 | 186 | 2.0 | 7.0 | 0.00 | 0.81 | 0.27 | 78 | 1015.9 |
| 20260505210046 | 50 | 181 | 1.0 | 7.0 | 0.00 | 0.81 | 0.27 | 81 | 1016.0 |
| 20260505205526 | 49 | 181 | 3.0 | 7.0 | 0.00 | 0.87 | 0.27 | 80 | 1016.0 |
| 20260505205026 | 49 | 174 | 2.0 | 7.0 | 0.00 | 0.87 | 0.27 | 82 | 1016.0 |
| 20260505204542 | 48 | 175 | 2.0 | 7.0 | 0.00 | 0.87 | 0.27 | 81 | 1016.0 |
| 20260505204025 | 48 | 182 | 1.0 | 4.0 | 0.00 | 0.87 | 0.27 | 82 | 1015.9 |
| 20260505203526 | 48 | 182 | 2.0 | 4.0 | 0.00 | 0.87 | 0.27 | 83 | 1015.9 |
| 20260505203045 | 48 | 189 | 1.0 | 4.0 | 0.00 | 0.87 | 0.27 | 85 | 1015.8 |
| 20260505202525 | 47 | 189 | 1.0 | 4.0 | 0.00 | 0.87 | 0.27 | 85 | 1015.9 |
| 20260505202024 | 46 | 189 | 1.0 | 4.0 | 0.00 | 0.87 | 0.27 | 87 | 1015.8 |
| 20260505201538 | 45 | 189 | 2.0 | 7.0 | 0.00 | 0.87 | 0.27 | 86 | 1015.9 |
| 20260505201027 | 46 | 189 | 2.0 | 7.0 | 0.00 | 0.87 | 0.27 | 84 | 1015.9 |
| 20260505200525 | 46 | 189 | 3.0 | 5.0 | 0.00 | 0.87 | 0.27 | 84 | 1016.0 |
| 20260505200037 | 46 | 188 | 2.0 | 6.0 | 0.00 | 0.87 | 0.27 | 84 | 1016.0 |
| 20260505195524 | 47 | 188 | 3.0 | 6.0 | 0.00 | 0.95 | 0.27 | 82 | 1015.8 |
| 20260505195024 | 47 | 184 | 2.0 | 5.0 | 0.00 | 0.95 | 0.27 | 84 | 1015.9 |
| 20260505194544 | 48 | 184 | 1.0 | 4.0 | 0.00 | 0.95 | 0.27 | 84 | 1015.8 |
| 20260505194026 | 47 | 185 | 1.0 | 4.0 | 0.00 | 0.95 | 0.27 | 87 | 1015.8 |
| 20260505193526 | 46 | 185 | 1.0 | 4.0 | 0.00 | 0.95 | 0.27 | 87 | 1015.8 |
| 20260505193042 | 46 | 185 | 1.0 | 5.0 | 0.00 | 0.95 | 0.27 | 87 | 1015.8 |
| 20260505192525 | 45 | 185 | 1.0 | 5.0 | 0.00 | 0.95 | 0.27 | 89 | 1015.8 |
| 20260505192025 | 44 | 185 | 1.0 | 7.0 | 0.00 | 0.95 | 0.27 | 88 | 1015.7 |
| 20260505191540 | 45 | 185 | 3.0 | 7.0 | 0.00 | 0.95 | 0.27 | 86 | 1015.8 |
| 20260505191025 | 45 | 182 | 2.0 | 6.0 | 0.00 | 0.95 | 0.27 | 89 | 1015.6 |
| 20260505190528 | 45 | 171 | 2.0 | 6.0 | 0.00 | 0.95 | 0.27 | 91 | 1015.7 |
| 20260505190046 | 44 | 0 | 0.0 | 5.0 | 0.00 | 0.95 | 0.27 | 92 | 1015.6 |
| 20260505185526 | 44 | 165 | 2.0 | 5.0 | 0.00 | 0.95 | 0.27 | 90 | 1015.6 |
| 20260505185026 | 44 | 0 | 1.0 | 5.0 | 0.00 | 0.95 | 0.27 | 91 | 1015.6 |
| 20260505184538 | 44 | 164 | 1.0 | 5.0 | 0.00 | 0.95 | 0.27 | 92 | 1015.6 |
| 20260505184026 | 43 | 164 | 0.0 | 2.0 | 0.00 | 0.95 | 0.27 | 94 | 1015.6 |
| 20260505183526 | 43 | 164 | 0.0 | 4.0 | 0.00 | 0.95 | 0.27 | 93 | 1015.6 |
| 20260505183048 | 42 | 164 | 0.0 | 4.0 | 0.00 | 0.95 | 0.27 | 93 | 1015.6 |
| 20260505182525 | 42 | 0 | 0.0 | 1.0 | 0.00 | 0.95 | 0.27 | 93 | 1015.5 |
| 20260505182026 | 42 | 0 | 0.0 | 3.0 | 0.01 | 0.95 | 0.27 | 93 | 1015.5 |
| 20260505181547 | 42 | 0 | 0.0 | 4.0 | 0.01 | 0.95 | 0.27 | 93 | 1015.4 |
| 20260505181027 | 42 | 164 | 1.0 | 5.0 | 0.01 | 0.95 | 0.27 | 93 | 1015.4 |
| 20260505180525 | 42 | 0 | 1.0 | 5.0 | 0.01 | 0.95 | 0.27 | 94 | 1015.4 |
| 20260505180045 | 42 | 164 | 0.0 | 2.0 | 0.01 | 0.95 | 0.27 | 95 | 1015.4 |
| 20260505175526 | 41 | 0 | 0.0 | 5.0 | 0.02 | 0.96 | 0.27 | 94 | 1015.2 |
| 20260505175025 | 41 | 0 | 1.0 | 5.0 | 0.02 | 0.96 | 0.27 | 94 | 1015.1 |
| 20260505174549 | 41 | 164 | 0.0 | 4.0 | 0.02 | 0.96 | 0.27 | 95 | 1015.2 |
| 20260505174025 | 41 | 164 | 0.0 | 4.0 | 0.02 | 0.96 | 0.27 | 95 | 1015.0 |
| 20260505173528 | 41 | 164 | 0.0 | 2.0 | 0.03 | 0.96 | 0.27 | 95 | 1015.1 |
| 20260505173048 | 41 | 0 | 1.0 | 2.0 | 0.03 | 0.96 | 0.27 | 95 | 1014.9 |
| 20260505172525 | 40 | 0 | 0.0 | 5.0 | 0.03 | 0.96 | 0.27 | 95 | 1014.9 |
| 20260505172026 | 40 | 164 | 1.0 | 5.0 | 0.03 | 0.95 | 0.26 | 96 | 1014.9 |
| 20260505171543 | 41 | 164 | 1.0 | 5.0 | 0.03 | 0.95 | 0.26 | 96 | 1014.8 |
| 20260505171026 | 40 | 0 | 0.0 | 4.0 | 0.03 | 0.95 | 0.26 | 96 | 1014.8 |
| 20260505170525 | 40 | 164 | 0.0 | 4.0 | 0.03 | 0.95 | 0.26 | 96 | 1014.8 |
| 20260505170042 | 40 | 0 | 0.0 | 3.0 | 0.04 | 0.95 | 0.26 | 96 | 1014.7 |
| 20260505165525 | 40 | 164 | 0.0 | 4.0 | 0.03 | 0.95 | 0.25 | 96 | 1014.7 |
| 20260505165026 | 40 | 164 | 1.0 | 4.0 | 0.03 | 0.95 | 0.25 | 96 | 1014.7 |
| 20260505164538 | 40 | 0 | 1.0 | 2.0 | 0.03 | 0.95 | 0.25 | 96 | 1014.5 |
| 20260505164025 | 39 | 0 | 0.0 | 2.0 | 0.04 | 0.95 | 0.25 | 96 | 1014.5 |
| 20260505163526 | 39 | 164 | 0.0 | 2.0 | 0.03 | 0.94 | 0.24 | 96 | 1014.5 |
| 20260505163045 | 39 | 0 | 0.0 | 2.0 | 0.03 | 0.94 | 0.24 | 96 | 1014.5 |
| 20260505162525 | 39 | 164 | 0.0 | 1.0 | 0.03 | 0.94 | 0.24 | 96 | 1014.5 |
| 20260505162025 | 39 | 0 | 0.0 | 1.0 | 0.03 | 0.93 | 0.23 | 96 | 1014.3 |
| 20260505161544 | 38 | 0 | 0.0 | 1.0 | 0.03 | 0.93 | 0.23 | 96 | 1014.3 |
| 20260505161026 | 38 | 0 | 0.0 | 1.0 | 0.03 | 0.93 | 0.23 | 96 | 1014.3 |
| 20260505160525 | 38 | 0 | 0.0 | 1.0 | 0.04 | 0.93 | 0.23 | 96 | 1014.2 |
| 20260505153048 | 38 | 0 | 0.0 | 2.0 | 0.04 | 0.92 | 0.21 | 96 | 1013.9 |
| 20260505152524 | 38 | 0 | 0.0 | 2.0 | 0.04 | 0.92 | 0.21 | 96 | 1013.8 |
| 20260505152026 | 38 | 0 | 0.0 | 0.0 | 0.03 | 0.91 | 0.20 | 96 | 1013.8 |
| 20260505151546 | 37 | 0 | 0.0 | 0.0 | 0.04 | 0.91 | 0.20 | 96 | 1013.6 |
| 20260505151025 | 37 | 0 | 0.0 | 1.0 | 0.04 | 0.91 | 0.20 | 96 | 1013.7 |
| 20260505150526 | 37 | 0 | 0.0 | 1.0 | 0.03 | 0.90 | 0.19 | 96 | 1013.7 |
| 20260505140525 | 36 | 0 | 0.0 | 1.0 | 0.02 | 0.87 | 0.16 | 96 | 1013.2 |
| 20260505125024 | 35 | 0 | 0.0 | 0.0 | 0.01 | 0.84 | 0.13 | 96 | 1012.7 |
| 20260505124548 | 35 | 0 | 0.0 | 0.0 | 0.01 | 0.84 | 0.13 | 96 | 1012.6 |
| 20260505124024 | 35 | 0 | 0.0 | 0.0 | 0.02 | 0.84 | 0.13 | 96 | 1012.6 |
| 20260505123527 | 35 | 0 | 0.0 | 0.0 | 0.02 | 0.84 | 0.13 | 96 | 1012.6 |
| 20260505123042 | 35 | 0 | 0.0 | 0.0 | 0.02 | 0.84 | 0.13 | 96 | 1012.7 |
| 20260505122525 | 35 | 0 | 0.0 | 0.0 | 0.02 | 0.84 | 0.13 | 96 | 1012.6 |
| 20260505122026 | 35 | 0 | 0.0 | 0.0 | 0.01 | 0.83 | 0.12 | 96 | 1012.6 |
| 20260505121542 | 35 | 0 | 0.0 | 0.0 | 0.01 | 0.83 | 0.12 | 96 | 1012.5 |
| 20260505121025 | 35 | 0 | 0.0 | 0.0 | 0.01 | 0.83 | 0.12 | 96 | 1012.5 |
| 20260505120524 | 35 | 0 | 0.0 | 0.0 | 0.01 | 0.83 | 0.12 | 96 | 1012.5 |
| 20260505120047 | 35 | 0 | 0.0 | 0.0 | 0.02 | 0.83 | 0.12 | 96 | 1012.5 |
| 20260505115524 | 35 | 0 | 0.0 | 0.0 | 0.02 | 0.83 | 0.12 | 96 | 1012.5 |
| 20260505115026 | 35 | 0 | 0.0 | 0.0 | 0.02 | 0.83 | 0.12 | 96 | 1012.5 |
| 20260505114547 | 35 | 0 | 0.0 | 0.0 | 0.02 | 0.83 | 0.12 | 96 | 1012.5 |
| 20260505114026 | 35 | 0 | 0.0 | 0.0 | 0.01 | 0.82 | 0.11 | 96 | 1012.6 |
| 20260505113526 | 35 | 0 | 0.0 | 0.0 | 0.01 | 0.82 | 0.11 | 96 | 1012.5 |
| 20260505113041 | 35 | 0 | 0.0 | 0.0 | 0.01 | 0.82 | 0.11 | 95 | 1012.3 |
| 20260505112529 | 35 | 0 | 0.0 | 0.0 | 0.02 | 0.82 | 0.11 | 96 | 1012.6 |
| 20260505112025 | 35 | 0 | 0.0 | 0.0 | 0.02 | 0.82 | 0.11 | 96 | 1012.5 |
| 20260505111539 | 35 | 0 | 0.0 | 0.0 | 0.02 | 0.82 | 0.11 | 96 | 1012.7 |
| 20260505111024 | 35 | 0 | 0.0 | 0.0 | 0.02 | 0.82 | 0.11 | 96 | 1012.6 |
| 20260505110526 | 35 | 0 | 0.0 | 0.0 | 0.02 | 0.82 | 0.11 | 96 | 1012.7 |
| 20260505102029 | 35 | 0 | 0.0 | 0.0 | 0.01 | 0.80 | 0.09 | 95 | 1012.9 |
| 20260505101543 | 35 | 0 | 0.0 | 0.0 | 0.02 | 0.80 | 0.09 | 95 | 1012.9 |
| 20260505101026 | 35 | 0 | 0.0 | 0.0 | 0.02 | 0.80 | 0.09 | 95 | 1013.1 |
| 20260505100525 | 35 | 0 | 0.0 | 0.0 | 0.02 | 0.80 | 0.09 | 95 | 1013.0 |
| 20260505100041 | 35 | 0 | 0.0 | 0.0 | 0.02 | 0.80 | 0.09 | 95 | 1013.1 |
| 20260505095526 | 35 | 0 | 0.0 | 0.0 | 0.02 | 0.80 | 0.09 | 95 | 1013.1 |
| 20260505095024 | 35 | 0 | 0.0 | 0.0 | 0.01 | 0.79 | 0.08 | 95 | 1013.0 |
| 20260505094545 | 35 | 0 | 0.0 | 0.0 | 0.02 | 0.79 | 0.08 | 95 | 1013.1 |
| 20260505094024 | 35 | 0 | 0.0 | 0.0 | 0.02 | 0.79 | 0.08 | 95 | 1013.2 |
| 20260505093526 | 35 | 0 | 0.0 | 0.0 | 0.02 | 0.79 | 0.08 | 95 | 1013.2 |
| 20260505093045 | 35 | 0 | 0.0 | 0.0 | 0.02 | 0.79 | 0.08 | 95 | 1013.1 |
| 20260505092526 | 35 | 0 | 0.0 | 0.0 | 0.03 | 0.79 | 0.08 | 95 | 1013.2 |
| 20260505092026 | 35 | 0 | 0.0 | 0.0 | 0.03 | 0.79 | 0.08 | 95 | 1013.1 |
| 20260505091539 | 35 | 0 | 0.0 | 0.0 | 0.02 | 0.78 | 0.07 | 95 | 1013.4 |
| 20260505091024 | 35 | 0 | 0.0 | 0.0 | 0.02 | 0.78 | 0.07 | 96 | 1013.4 |
| 20260505090525 | 35 | 0 | 0.0 | 0.0 | 0.02 | 0.78 | 0.07 | 96 | 1013.4 |
| 20260505090048 | 35 | 0 | 0.0 | 0.0 | 0.03 | 0.78 | 0.07 | 95 | 1013.3 |
| 20260505085527 | 34 | 0 | 0.0 | 0.0 | 0.03 | 0.78 | 0.07 | 95 | 1013.3 |
| 20260505085026 | 34 | 0 | 0.0 | 0.0 | 0.04 | 0.78 | 0.07 | 95 | 1013.3 |
| 20260505084548 | 34 | 0 | 0.0 | 0.0 | 0.04 | 0.77 | 0.06 | 95 | 1013.2 |
| 20260505084025 | 34 | 0 | 0.0 | 0.0 | 0.04 | 0.77 | 0.06 | 95 | 1013.4 |
| 20260505083525 | 34 | 0 | 0.0 | 0.0 | 0.04 | 0.77 | 0.06 | 95 | 1013.5 |
| 20260505083041 | 34 | 0 | 0.0 | 0.0 | 0.04 | 0.77 | 0.06 | 95 | 1013.6 |
| 20260505082525 | 34 | 0 | 0.0 | 0.0 | 0.03 | 0.76 | 0.05 | 95 | 1013.6 |
| 20260505082025 | 34 | 0 | 0.0 | 0.0 | 0.04 | 0.76 | 0.05 | 95 | 1013.5 |
| 20260505081538 | 34 | 0 | 0.0 | 0.0 | 0.04 | 0.76 | 0.05 | 95 | 1013.5 |
| 20260505081026 | 34 | 0 | 0.0 | 0.0 | 0.04 | 0.76 | 0.05 | 95 | 1013.3 |
| 20260505080525 | 34 | 0 | 0.0 | 0.0 | 0.05 | 0.76 | 0.05 | 95 | 1013.4 |
| 20260505080053 | 34 | 0 | 0.0 | 0.0 | 0.04 | 0.75 | 0.04 | 95 | 1013.4 |
| 20260505075524 | 34 | 0 | 0.0 | 0.0 | 0.05 | 0.75 | 0.04 | 95 | 1013.6 |
| 20260505075030 | 34 | 0 | 0.0 | 0.0 | 0.04 | 0.74 | 0.03 | 95 | 1013.9 |
| 20260505074544 | 34 | 0 | 0.0 | 2.0 | 0.03 | 0.73 | 0.02 | 95 | 1014.0 |
| 20260505074026 | 34 | 0 | 0.0 | 2.0 | 0.03 | 0.73 | 0.02 | 95 | 1013.9 |
| 20260505073526 | 34 | 164 | 0.0 | 2.0 | 0.03 | 0.73 | 0.02 | 95 | 1013.9 |
| 20260505073046 | 34 | 0 | 0.0 | 1.0 | 0.03 | 0.73 | 0.02 | 95 | 1013.9 |
| 20260505072525 | 34 | 0 | 0.0 | 0.0 | 0.03 | 0.73 | 0.02 | 95 | 1013.9 |
| 20260505072027 | 34 | 0 | 0.0 | 0.0 | 0.02 | 0.72 | 0.01 | 95 | 1013.9 |
| 20260505071540 | 34 | 0 | 0.0 | 0.0 | 0.02 | 0.72 | 0.01 | 95 | 1013.6 |
| 20260505071026 | 34 | 0 | 0.0 | 1.0 | 0.01 | 0.71 | 0.00 | 95 | 1013.6 |
| 20260505070525 | 34 | 0 | 0.0 | 1.0 | 0.01 | 0.71 | 0.00 | 95 | 1013.7 |
| 20260505070050 | 34 | 0 | 0.0 | 1.0 | 0.02 | 0.71 | 0.00 | 95 | 1013.5 |
| 20260505065525 | 34 | 0 | 0.0 | 1.0 | 0.01 | 0.70 | 0.70 | 95 | 1013.5 |
| 20260505065024 | 34 | 0 | 0.0 | 0.0 | 0.01 | 0.70 | 0.70 | 95 | 1013.5 |
| 20260505064546 | 34 | 0 | 0.0 | 0.0 | 0.01 | 0.70 | 0.70 | 95 | 1013.4 |
| 20260505064024 | 34 | 0 | 0.0 | 0.0 | 0.01 | 0.70 | 0.70 | 95 | 1013.6 |
| 20260505063524 | 34 | 0 | 0.0 | 0.0 | 0.01 | 0.70 | 0.70 | 95 | 1013.6 |
| 20260505063101 | 34 | 0 | 0.0 | 0.0 | 0.01 | 0.70 | 0.70 | 95 | 1013.6 |
| 20260505062526 | 33 | 0 | 0.0 | 0.0 | 0.01 | 0.70 | 0.70 | 95 | 1013.5 |
| 20260505062025 | 33 | 0 | 0.0 | 0.0 | 0.02 | 0.70 | 0.70 | 95 | 1013.5 |
| 20260505061543 | 33 | 0 | 0.0 | 0.0 | 0.02 | 0.70 | 0.70 | 95 | 1013.6 |
| 20260505061025 | 33 | 0 | 0.0 | 0.0 | 0.02 | 0.70 | 0.70 | 95 | 1013.6 |
| 20260505060526 | 33 | 0 | 0.0 | 0.0 | 0.02 | 0.70 | 0.70 | 95 | 1013.7 |
| 20260505060040 | 33 | 0 | 0.0 | 0.0 | 0.01 | 0.69 | 0.69 | 95 | 1013.6 |
| 20260505055525 | 33 | 0 | 0.0 | 0.0 | 0.01 | 0.69 | 0.69 | 95 | 1013.6 |
| 20260505055026 | 33 | 0 | 0.0 | 0.0 | 0.01 | 0.69 | 0.69 | 95 | 1013.7 |
| 20260505054540 | 33 | 0 | 0.0 | 0.0 | 0.01 | 0.69 | 0.69 | 95 | 1013.7 |
| 20260505054028 | 33 | 0 | 0.0 | 0.0 | 0.01 | 0.69 | 0.69 | 95 | 1013.8 |
| 20260505053529 | 33 | 0 | 0.0 | 0.0 | 0.02 | 0.69 | 0.69 | 95 | 1013.8 |
| 20260505053056 | 33 | 0 | 0.0 | 0.0 | 0.02 | 0.69 | 0.69 | 95 | 1013.9 |
| 20260505052525 | 33 | 0 | 0.0 | 0.0 | 0.02 | 0.69 | 0.69 | 95 | 1013.9 |
| 20260505052025 | 33 | 0 | 0.0 | 0.0 | 0.01 | 0.68 | 0.68 | 95 | 1013.9 |
| 20260505051541 | 33 | 0 | 0.0 | 0.0 | 0.01 | 0.68 | 0.68 | 95 | 1013.9 |
| 20260505051027 | 33 | 0 | 0.0 | 0.0 | 0.01 | 0.68 | 0.68 | 95 | 1013.8 |
| 20260505050526 | 33 | 0 | 0.0 | 0.0 | 0.02 | 0.68 | 0.68 | 95 | 1013.8 |
| 20260505041553 | 33 | 0 | 0.0 | 0.0 | 0.04 | 0.67 | 0.67 | 95 | 1014.0 |
| 20260505041027 | 33 | 0 | 0.0 | 0.0 | 0.04 | 0.67 | 0.67 | 95 | 1014.0 |
| 20260505040526 | 33 | 0 | 0.0 | 0.0 | 0.03 | 0.66 | 0.66 | 95 | 1013.8 |
| 20260505040052 | 33 | 0 | 0.0 | 0.0 | 0.03 | 0.66 | 0.66 | 95 | 1013.7 |
| 20260505035525 | 33 | 0 | 0.0 | 0.0 | 0.03 | 0.66 | 0.66 | 95 | 1013.7 |
| 20260505035025 | 33 | 0 | 0.0 | 0.0 | 0.02 | 0.65 | 0.65 | 95 | 1013.7 |
| 20260505034545 | 33 | 0 | 0.0 | 0.0 | 0.01 | 0.64 | 0.64 | 95 | 1013.8 |
| 20260505034029 | 33 | 0 | 0.0 | 0.0 | 0.02 | 0.64 | 0.64 | 95 | 1013.8 |
| 20260505033528 | 33 | 0 | 0.0 | 0.0 | 0.02 | 0.64 | 0.64 | 95 | 1013.7 |
| 20260505033045 | 33 | 0 | 0.0 | 0.0 | 0.02 | 0.64 | 0.64 | 95 | 1013.7 |
| 20260505032528 | 33 | 0 | 0.0 | 0.0 | 0.02 | 0.64 | 0.64 | 95 | 1013.9 |
| 20260505032027 | 33 | 0 | 0.0 | 0.0 | 0.03 | 0.64 | 0.64 | 95 | 1013.9 |
| 20260505031553 | 33 | 0 | 0.0 | 0.0 | 0.02 | 0.63 | 0.63 | 95 | 1014.0 |
| 20260505031027 | 33 | 0 | 0.0 | 0.0 | 0.03 | 0.63 | 0.63 | 95 | 1013.9 |
| 20260505030525 | 33 | 0 | 0.0 | 0.0 | 0.05 | 0.63 | 0.63 | 95 | 1013.9 |
| 20260505030047 | 33 | 0 | 0.0 | 0.0 | 0.07 | 0.63 | 0.63 | 95 | 1013.9 |
| 20260505025528 | 33 | 0 | 0.0 | 0.0 | 0.09 | 0.63 | 0.63 | 95 | 1013.7 |
| 20260505025024 | 33 | 0 | 0.0 | 0.0 | 0.10 | 0.63 | 0.63 | 95 | 1013.7 |
| 20260505024554 | 33 | 0 | 0.0 | 3.0 | 0.12 | 0.63 | 0.63 | 95 | 1013.6 |
| 20260505024025 | 33 | 0 | 0.0 | 4.0 | 0.12 | 0.62 | 0.62 | 95 | 1013.6 |
| 20260505023525 | 33 | 0 | 1.0 | 4.0 | 0.13 | 0.62 | 0.62 | 95 | 1013.6 |
| 20260505023039 | 33 | 0 | 0.0 | 4.0 | 0.14 | 0.62 | 0.62 | 94 | 1013.5 |
| 20260505022525 | 33 | 0 | 0.0 | 5.0 | 0.17 | 0.62 | 0.62 | 94 | 1013.4 |
| 20260505022027 | 33 | 165 | 2.0 | 5.0 | 0.17 | 0.61 | 0.61 | 94 | 1013.4 |
| 20260505021547 | 33 | 0 | 0.0 | 0.0 | 0.17 | 0.61 | 0.61 | 94 | 1013.1 |
| 20260505021027 | 33 | 0 | 0.0 | 0.0 | 0.15 | 0.58 | 0.58 | 94 | 1013.4 |
| 20260505020524 | 33 | 0 | 0.0 | 0.0 | 0.13 | 0.57 | 0.57 | 94 | 1013.7 |
| 20260505020044 | 33 | 0 | 0.0 | 0.0 | 0.12 | 0.56 | 0.56 | 94 | 1014.0 |
| 20260505015528 | 33 | 0 | 0.0 | 0.0 | 0.10 | 0.54 | 0.54 | 94 | 1014.1 |
| 20260505015026 | 33 | 0 | 0.0 | 0.0 | 0.10 | 0.52 | 0.52 | 94 | 1013.9 |
| 20260505014601 | 33 | 0 | 0.0 | 0.0 | 0.08 | 0.51 | 0.51 | 94 | 1013.9 |
| 20260505014026 | 33 | 0 | 0.0 | 0.0 | 0.08 | 0.50 | 0.50 | 94 | 1014.1 |
| 20260505013527 | 33 | 0 | 0.0 | 0.0 | 0.08 | 0.49 | 0.49 | 94 | 1014.1 |
| 20260505013041 | 33 | 0 | 0.0 | 0.0 | 0.08 | 0.48 | 0.48 | 93 | 1014.0 |
| 20260505012527 | 34 | 0 | 0.0 | 0.0 | 0.06 | 0.45 | 0.45 | 93 | 1014.2 |